Location: Unspecified
(0.0000°N, 0.0000°E)
Time: 13:40:44
(UTC+00:00)

A-11 Canister half - Pass Details

Date: 20 November 2019
Orbit: 1526 x 1683 km, 47.3° (Epoch: 08 December)

Event Time Altitude Azimuth Distance (km) Brightness Sun altitude
Rises 18:38:12 0° 342° (NNW) 4,709 11.5 -12.4°
Reaches altitude 10° 18:41:58 10° 354° (N) 3,709 10.9 -13.2°
Maximum altitude 18:49:25 27° 48° (NE) 2,618 9.7 -15.0°
Enters shadow 18:53:43 19° 85° (E) 3,023 9.9 -16.0°
Drops below altitude 10° 18:56:48 10° 102° (ESE) 3,689 - -16.7°
Sets 19:00:29 0° 114° (ESE) 4,679 - -17.6°
